This is the latest recevied weather packets stored in our database for station/object PA3BWK. If no packets are shown the sender has not sent any weather packets the latest 1 day(s).
| Time | Temp. | Humidity | Pressure | Rain* | Wind** | Luminosity | Snow |
|---|---|---|---|---|---|---|---|
| 1778064963 | 13.89° C | 57% | 1010.1 hPa | 0 mm | - | 250 W/m² | - |
| 1778064724 | 13.89° C | 56% | 1010 hPa | 0 mm | - | 253 W/m² | - |
| 1778064364 | 13.89° C | 56% | 1009.9 hPa | 0 mm | - | 329 W/m² | - |
| 1778064124 | 13.89° C | 56% | 1009.9 hPa | 0 mm | - | 362 W/m² | - |
| 1778064065 | 13.89° C | 56% | 1009.9 hPa | 0 mm | - | 371 W/m² | - |
| 1778064003 | 13.89° C | 56% | 1010 hPa | 0 mm | - | 362 W/m² | - |
| 1778063764 | 13.89° C | 55% | 1009.9 hPa | 0 mm | - | 359 W/m² | - |
| 1778063705 | 13.89° C | 56% | 1009.9 hPa | 0 mm | - | 385 W/m² | - |
| 1778063644 | 13.89° C | 56% | 1009.9 hPa | 0 mm | - | 394 W/m² | - |
| 1778063583 | 13.89° C | 56% | 1010 hPa | 0 mm | - | 378 W/m² | - |
| 1778063465 | 13.33° C | 57% | 1009.8 hPa | 0 mm | - | 361 W/m² | - |
| 1778063163 | 13.33° C | 58% | 1009.9 hPa | 0 mm | - | 343 W/m² | - |
| 1778062805 | 13.33° C | 59% | 1009.9 hPa | 0 mm | - | 255 W/m² | - |
| 1778062744 | 13.33° C | 59% | 1009.9 hPa | 0 mm | - | 218 W/m² | - |
| 1778062505 | 13.33° C | 60% | 1009.8 hPa | 0 mm | - | 266 W/m² | - |
| 1778062445 | 13.33° C | 62% | 1009.8 hPa | 0 mm | - | 294 W/m² | - |
| 1778062265 | 13.33° C | 63% | 1009.7 hPa | 0 mm | - | 283 W/m² | - |
| 1778062146 | 13.33° C | 63% | 1009.7 hPa | 0 mm | - | 311 W/m² | - |
| 1778061907 | 13.33° C | 62% | 1009.7 hPa | 0 mm | - | 215 W/m² | - |
| 1778061724 | 13.33° C | 62% | 1009.7 hPa | 0 mm | - | 195 W/m² | - |
| 1778061483 | 13.33° C | 61% | 1009.7 hPa | 0 mm | - | 137 W/m² | - |
| 1778061306 | 13.89° C | 61% | 1009.7 hPa | 0 mm | - | 106 W/m² | - |
| 1778061193 | 13.89° C | 60% | 1009.8 hPa | 0 mm | - | 88 W/m² | - |
| 1778061124 | 13.89° C | 60% | 1009.7 hPa | 0 mm | - | 86 W/m² | - |
| 1778060944 | 14.44° C | 59% | 1009.8 hPa | 0 mm | - | 95 W/m² | - |
* Rain latest hour (hover to see other rain measurements)
** Current wind speed in m/s (hover to see current wind gust speed)